Total_Precipitation_Accumulation
0.72 0.78 0.85 0.89 0.93 1.00 1.05 1.03 0.97 0.91 0.86 0.86 0.86 0.82 0.78 0.81 0.86 0.89 0.88 0.99 1.12 1.17 1.03 0.92 0.87 0.82 0.83 0.72 0.70 0.74 0.77 0.90 1.00 0.89 0.86 0.96 1.00 0.93 0.92 0.87 0.79 0.78 0.70
0.63 0.77 0.81 0.89 0.94 0.94 0.96 1.10 1.10 1.05 1.01 1.00 0.98 0.97 0.90 0.84 0.87 0.85 0.79 0.85 1.01 1.21 1.36 1.38 1.21 1.07 1.03 0.90 0.87 0.86 0.85 0.92 1.00 1.06 1.04 1.07 1.07 1.06 1.02 0.84 0.69 0.65 0.67
0.54 0.67 0.77 0.86 0.94 0.99 1.04 1.15 1.24 1.23 1.21 1.22 1.21 1.15 1.08 1.05 1.02 0.97 0.91 0.89 0.93 1.02 1.20 1.38 1.38 1.37 1.21 1.11 1.03 0.96 0.91 0.87 0.95 1.00 1.04 1.17 1.23 1.21 1.03 0.77 0.67 0.69 0.62
0.66 0.78 0.84 0.99 1.11 1.16 1.13 1.21 1.27 1.33 1.37 1.39 1.38 1.31 1.24 1.19 1.16 1.13 1.10 1.08 1.08 1.06 1.06 1.10 1.20 1.36 1.31 1.23 1.16 1.10 1.06 1.04 1.05 1.04 1.08 1.22 1.39 1.41 1.18 0.88 0.75 0.72 0.67
0.93 0.99 1.00 1.07 1.15 1.23 1.33 1.39 1.48 1.54 1.56 1.64 1.58 1.49 1.42 1.38 1.27 1.33 1.43 1.41 1.40 1.25 1.12 1.04 1.01 1.15 1.25 1.25 1.13 1.08 1.12 1.14 1.12 1.09 1.14 1.27 1.41 1.49 1.24 0.99 0.83 0.75 0.69
1.32 1.39 1.45 1.49 1.51 1.55 1.59 1.63 1.73 1.77 1.76 1.70 1.64 1.63 1.58 1.42 1.51 1.52 1.43 1.42 1.53 1.50 1.36 1.25 1.10 1.03 1.04 1.10 1.16 1.18 1.17 1.15 1.17 1.20 1.22 1.30 1.39 1.43 1.46 1.28 1.05 0.83 0.72
1.38 1.39 1.43 1.51 1.57 1.59 1.62 1.67 1.68 1.71 1.69 1.64 1.65 1.68 1.64 1.63 1.53 1.35 1.24 1.21 1.26 1.32 1.34 1.27 1.06 0.96 1.01 0.99 1.12 1.16 1.11 1.05 1.01 1.07 1.13 1.21 1.48 1.63 1.74 1.47 1.23 1.06 0.85
1.29 1.27 1.25 1.28 1.30 1.34 1.44 1.50 1.51 1.52 1.50 1.48 1.47 1.39 1.34 1.30 1.26 1.10 1.05 1.04 1.05 1.03 1.11 1.19 1.12 1.02 0.97 0.95 0.90 0.84 0.82 0.83 0.81 0.78 0.84 1.01 1.27 1.62 1.79 1.76 1.65 1.41 1.20
1.07 1.09 1.05 1.09 1.14 1.20 1.27 1.36 1.43 1.42 1.30 1.20 1.14 1.12 1.12 1.15 1.23 1.05 0.97 0.96 0.99 0.92 0.92 0.94 0.95 0.86 0.84 0.76 0.73 0.66 0.63 0.63 0.63 0.64 0.67 0.82 1.01 1.26 1.59 1.75 1.69 1.47 1.21
1.03 1.09 1.07 1.06 1.12 1.16 1.23 1.27 1.28 1.27 1.23 1.20 1.13 1.09 1.08 1.09 1.17 1.01 0.93 0.93 0.96 0.92 0.91 0.95 1.02 0.88 0.74 0.59 0.59 0.62 0.56 0.52 0.54 0.54 0.54 0.58 0.70 0.88 1.20 1.35 1.33 1.28 1.11
0.96 1.01 1.02 1.00 1.01 1.05 1.11 1.11 1.17 1.20 1.18 1.12 1.05 1.03 1.06 1.06 1.04 0.89 0.79 0.76 0.80 0.81 0.77 0.78 0.88 0.84 0.67 0.52 0.52 0.55 0.50 0.48 0.52 0.50 0.51 0.55 0.65 0.78 0.92 1.14 1.19 1.10 0.98
0.95 0.98 0.95 0.95 0.93 0.92 0.92 0.92 0.97 1.00 0.99 0.97 0.97 0.97 1.02 1.01 0.88 0.75 0.64 0.60 0.63 0.66 0.75 0.76 0.85 0.86 0.68 0.57 0.50 0.47 0.40 0.35 0.39 0.46 0.47 0.47 0.53 0.64 0.81 1.02 1.18 1.16 1.03
0.90 0.94 0.93 0.93 0.95 0.97 0.98 0.98 0.98 0.98 0.97 0.95 0.90 0.83 0.82 0.85 0.84 0.68 0.53 0.47 0.51 0.58 0.79 0.99 1.01 0.94 0.79 0.65 0.58 0.55 0.44 0.37 0.40 0.44 0.46 0.45 0.47 0.58 0.82 1.07 1.26 1.36 1.26
0.89 0.83 0.80 0.81 0.82 0.87 0.96 1.01 1.03 1.02 0.98 0.92 0.86 0.82 0.82 0.83 0.82 0.77 0.66 0.57 0.58 0.64 0.82 1.01 1.11 1.13 1.04 0.91 0.82 0.73 0.57 0.52 0.54 0.54 0.56 0.60 0.64 0.75 0.90 1.00 1.13 1.26 1.29
0.85 0.83 0.80 0.77 0.77 0.81 0.86 0.90 0.88 0.89 0.88 0.84 0.79 0.78 0.80 0.82 0.81 0.75 0.67 0.61 0.59 0.63 0.75 1.00 1.19 1.32 1.34 1.29 1.15 1.03 0.89 0.78 0.70 0.70 0.73 0.73 0.74 0.80 0.86 0.97 1.09 1.13 1.10
0.88 0.82 0.79 0.75 0.74 0.74 0.75 0.81 0.88 0.80 0.79 0.74 0.71 0.65 0.62 0.65 0.66 0.57 0.52 0.51 0.51 0.56 0.68 0.92 1.15 1.34 1.41 1.50 1.48 1.36 1.17 0.99 0.91 0.88 0.84 0.82 0.82 0.81 0.85 0.98 1.11 1.16 1.06
0.88 0.83 0.76 0.71 0.71 0.69 0.68 0.71 0.80 0.80 0.73 0.69 0.72 0.65 0.53 0.53 0.50 0.47 0.46 0.45 0.44 0.47 0.62 0.78 0.89 1.04 1.22 1.41 1.48 1.46 1.29 1.14 1.14 1.11 1.01 0.95 0.95 0.93 0.90 0.97 1.09 1.16 1.14
0.76 0.77 0.71 0.67 0.70 0.69 0.66 0.67 0.72 0.78 0.83 0.77 0.73 0.70 0.53 0.43 0.39 0.38 0.38 0.37 0.35 0.38 0.51 0.62 0.70 0.81 0.99 1.24 1.38 1.44 1.37 1.24 1.22 1.24 1.20 1.13 1.11 1.05 0.97 0.94 1.04 1.12 1.15
0.68 0.64 0.61 0.62 0.65 0.65 0.64 0.63 0.65 0.69 0.75 0.73 0.66 0.66 0.55 0.42 0.37 0.36 0.42 0.46 0.45 0.44 0.52 0.58 0.62 0.73 0.87 1.07 1.27 1.41 1.44 1.36 1.30 1.35 1.34 1.24 1.19 1.14 1.02 0.94 0.98 1.09 1.16
0.63 0.70 0.62 0.57 0.58 0.61 0.65 0.66 0.65 0.70 0.73 0.74 0.69 0.65 0.59 0.48 0.46 0.52 0.62 0.69 0.65 0.63 0.65 0.66 0.70 0.79 0.93 1.14 1.33 1.42 1.45 1.42 1.37 1.40 1.38 1.29 1.22 1.19 1.08 1.03 1.03 1.07 1.08
0.59 0.58 0.59 0.50 0.49 0.54 0.57 0.61 0.63 0.68 0.74 0.74 0.68 0.61 0.54 0.52 0.60 0.70 0.81 0.83 0.76 0.72 0.69 0.67 0.69 0.76 0.93 1.13 1.27 1.39 1.42 1.42 1.41 1.37 1.34 1.26 1.21 1.20 1.17 1.13 1.07 1.08 1.12
0.54 0.50 0.48 0.48 0.50 0.51 0.50 0.55 0.58 0.60 0.62 0.66 0.68 0.65 0.62 0.59 0.70 0.78 0.84 0.88 0.86 0.83 0.78 0.75 0.72 0.77 0.86 0.99 1.14 1.27 1.30 1.30 1.32 1.33 1.29 1.24 1.20 1.19 1.22 1.21 1.17 1.15 1.17
0.46 0.46 0.46 0.49 0.52 0.53 0.53 0.54 0.55 0.56 0.61 0.68 0.70 0.72 0.76 0.79 0.83 0.90 0.94 0.94 0.88 0.84 0.79 0.75 0.75 0.77 0.82 0.88 0.98 1.08 1.14 1.17 1.18 1.21 1.26 1.24 1.20 1.18 1.19 1.19 1.17 1.17 1.14
0.42 0.42 0.40 0.43 0.47 0.50 0.52 0.54 0.54 0.53 0.58 0.65 0.72 0.79 0.83 0.86 0.89 0.92 0.90 0.88 0.83 0.78 0.79 0.78 0.78 0.78 0.81 0.87 0.92 0.91 0.92 0.94 0.96 1.00 1.06 1.10 1.11 1.11 1.13 1.12 1.14 1.17 1.20
0.40 0.44 0.43 0.44 0.43 0.46 0.48 0.49 0.49 0.50 0.56 0.67 0.73 0.78 0.81 0.84 0.87 0.83 0.78 0.73 0.68 0.68 0.71 0.71 0.71 0.66 0.64 0.66 0.68 0.70 0.77 0.76 0.77 0.82 0.85 0.88 0.90 0.95 1.01 1.03 1.08 1.17 1.25
0.32 0.41 0.45 0.45 0.42 0.41 0.44 0.46 0.46 0.50 0.55 0.58 0.64 0.66 0.67 0.70 0.75 0.74 0.71 0.69 0.67 0.65 0.65 0.66 0.63 0.56 0.55 0.55 0.52 0.52 0.50 0.48 0.54 0.63 0.68 0.72 0.79 0.88 0.94 0.97 1.01 1.10 1.17